Change the Weather History Date:

Friday, June 28, 2013

  Actual Average Record
Temperature  
Mean Temperature 89 °F 80 °F  
Max Temperature 108 °F 95 °F 111 °F (1956)
Min Temperature 70 °F 65 °F 52 °F (1974)
Degree Days  
Heating Degree Days 0    
Month to date heating degree days 0  
Since 1 June heating degree days 0  
Since 1 July heating degree days 2717  
Cooling Degree Days 24    
Month to date cooling degree days 406  
Year to date cooling degree days 664  
Since 1 June cooling degree days 406  
Growing Degree Days 39 (Base 50)    
Moisture  
Dew Point 50 °F    
Average Humidity 28    
Maximum Humidity 44    
Minimum Humidity 12    
Precipitation  
Precipitation 0.00 in 0.01 in 0.00 in (2015)
Month to date precipitation 0.00 0.05  
Year to date precipitation 1.10 4.91  
Since 1 July precipitation 1.26 7.38  
Snow  
Snow 0.00 in - 0.00 in ()
Month to date snowfall 0.0  
Since 1 June snowfall 0.0  
Since 1 July snowfall 0.0  
Snow Depth 0.00 in    
Sea Level Pressure  
Sea Level Pressure 29.92 in    
Wind  
Wind Speed 10 mph (WSW)    
Max Wind Speed 26 mph    
Max Gust Speed 32 mph    
Visibility 10 miles    
Events      
T = Trace of Precipitation, MM = Missing Value Source: NWS Daily Summary

Daily Weather History Graph

Daily Weather History Graph

Search for Another Location

Airport or City:

Trip Planner

Search our weather history database for the weather conditions in past years. The results will help you decide how hot, cold, wet, or windy it might be!

Date:

Astronomy

Jun. 28, 2013 Rise Set
Actual Time 5:42 AM PDT 8:10 PM PDT
Civil Twilight 5:12 AM PDT 8:39 PM PDT
Nautical Twilight 4:36 AM PDT 9:16 PM PDT
Astronomical Twilight 3:56 AM PDT 9:56 PM PDT
Moon 11:58 PM PDT (6/28) 11:39 AM PDT (6/28)
Length of Visible Light 15h 27m
Length of Day
14h 27m
Waning Gibbous, 65% of the Moon is Illuminated
Jun 28
Waning Gibbous
Jun 29
Last Quarter
Jul 8
New
Jul 15
First Quarter
Jul 22
Full

Hourly Weather History & Observations

Time (PDT) Temp. Heat Index Dew Point Humidity Pressure Visibility Wind Dir Wind Speed Gust Speed Precip Events Conditions
12:56 AM 82.0 °F - 52.0 °F 35% 29.98 in 10.0 mi West 15.0 mph - N/A   Clear
1:56 AM 81.0 °F 80.8 °F 55.9 °F 42% 29.96 in 10.0 mi West 13.8 mph - N/A   Clear
2:56 AM 80.1 °F 80.2 °F 55.9 °F 43% 29.95 in 10.0 mi West 11.5 mph - N/A   Clear
3:56 AM 78.1 °F - 51.1 °F 39% 29.95 in 10.0 mi West 6.9 mph - N/A   Clear
4:56 AM 73.0 °F - 50.0 °F 44% 29.95 in 10.0 mi Calm Calm - N/A   Clear
5:56 AM 71.1 °F - 48.0 °F 44% 29.96 in 10.0 mi Calm Calm - N/A   Clear
6:56 AM 78.1 °F - 52.0 °F 40% 29.98 in 10.0 mi Calm Calm - N/A   Clear
7:56 AM 82.9 °F 81.9 °F 54.0 °F 37% 29.99 in 10.0 mi Calm Calm - N/A   Clear
8:56 AM 88.0 °F 85.9 °F 54.0 °F 31% 29.98 in 10.0 mi Variable 3.5 mph - N/A   Clear
9:56 AM 93.0 °F 90.8 °F 54.0 °F 27% 29.97 in 10.0 mi Calm Calm - N/A   Clear
10:56 AM 97.0 °F - 52.0 °F 22% 29.95 in 10.0 mi Variable 5.8 mph - N/A   Clear
11:56 AM 100.9 °F - 48.0 °F 17% 29.94 in 10.0 mi SSW 4.6 mph - N/A   Clear
12:56 PM 104.0 °F - 45.0 °F 14% 29.91 in 10.0 mi SSW 5.8 mph - N/A   Clear
1:56 PM 105.1 °F - 44.1 °F 13% 29.88 in 10.0 mi South 6.9 mph - N/A   Clear
2:56 PM 107.1 °F - 46.0 °F 13% 29.86 in 10.0 mi SW 18.4 mph 25.3 mph N/A   Clear
3:56 PM 107.1 °F - 45.0 °F 12% 29.86 in 10.0 mi WSW 18.4 mph 25.3 mph N/A   Clear
4:56 PM 104.0 °F - 46.0 °F 14% 29.85 in 10.0 mi SW 18.4 mph 28.8 mph N/A   Clear
5:56 PM 100.9 °F - 46.9 °F 16% 29.86 in 10.0 mi WSW 23.0 mph 27.6 mph N/A   Clear
6:56 PM 97.0 °F - 46.0 °F 18% 29.86 in 10.0 mi WSW 20.7 mph 26.5 mph N/A   Clear
7:56 PM 91.9 °F 89.5 °F 53.1 °F 27% 29.88 in 10.0 mi West 20.7 mph - N/A   Clear
8:56 PM 88.0 °F - 51.1 °F 28% 29.89 in 10.0 mi West 16.1 mph 25.3 mph N/A   Clear
9:56 PM 86.0 °F - 51.1 °F 30% 29.90 in 10.0 mi WSW 9.2 mph - N/A   Clear
10:56 PM 86.0 °F - 52.0 °F 31% 29.89 in 10.0 mi West 10.4 mph - N/A   Clear
11:56 PM 84.9 °F - 48.0 °F 28% 29.88 in 10.0 mi West 11.5 mph - N/A   Clear